DW1289 Weather Reports


time (UTC)temp
F
wind
direction
speed
knots
gust
knots
rain 1hr
in
rain 24hr
in
rain mn
in
humidity
%
barometer
mb
20260831092036 71 0.0 0.0 0.00 0.00 0.00 93 1018.2
20260831091016 71 0.0 1.7 0.00 0.00 0.00 92 1018.1
20260831090016 71 0.0 1.7 0.00 0.00 0.00 92 1018.2
20260831085036 71 0.0 0.9 0.00 0.00 0.00 92 1018.2
20260831084016 71 0.0 0.0 0.00 0.00 0.00 92 1018.2
20260831083016 71 0.0 0.0 0.00 0.00 0.00 91 1018.3
20260831082016 71 0.0 0.9 0.00 0.00 0.00 91 1018.3
20260831081016 71 0.0 0.0 0.00 0.00 0.00 91 1018.1
20260831080016 72 0.0 0.0 0.00 0.00 0.00 91 1018.0
20260831075016 72 0.0 0.0 0.00 0.00 0.00 91 1018.1
20260831074016 72 0.0 0.0 0.00 0.00 0.00 91 1018.0
20260831073016 72 0.0 0.0 0.00 0.00 0.00 91 1018.1
20260831072016 72 0.0 0.0 0.00 0.00 0.00 90 1018.3
20260831071016 72 0.0 0.0 0.00 0.00 0.00 90 1018.3
20260831070016 72 0.0 0.0 0.00 0.00 0.00 90 1018.2
20260831065016 73 0.0 0.0 0.00 0.00 0.00 90 1018.2
20260831064016 73 0.0 0.0 0.00 0.00 0.00 90 1018.5
20260831063016 73 0.0 0.0 0.00 0.00 0.00 90 1018.6
20260831062016 73 0.0 0.0 0.00 0.00 0.00 89 1018.6
20260831061016 73 0.0 0.0 0.00 0.00 0.00 89 1018.5
20260831060016 73 0.0 0.0 0.00 0.00 0.00 88 1018.5
20260831055016 74 0.0 0.0 0.00 0.00 0.00 88 1018.3
20260831054016 74 0.0 0.0 0.00 0.00 0.00 88 1018.4
20260831053016 74 0.0 0.0 0.00 0.00 0.00 88 1018.3
20260831052016 74 0.0 0.0 0.00 0.00 0.00 88 1018.4
20260831051016 74 0.0 0.0 0.00 0.00 0.00 87 1018.5
20260831050036 74 0.0 0.0 0.00 0.00 0.00 87 1018.6
20260831045016 75 0.0 0.0 0.00 0.00 0.00 86 1018.6
20260831044016 75 0.0 0.0 0.00 0.00 0.00 86 1018.7
20260831043016 75 0.0 0.0 0.00 0.00 0.00 86 1018.7
20260831042016 75 0.0 0.0 0.00 0.00 0.00 86 1018.5
20260831041016 76 0.0 0.0 0.00 0.00 0.00 86 1018.4
20260831040016 76 0.0 0.0 0.00 0.00 0.00 85 1018.4
20260831035017 76 0.0 0.0 0.00 0.00 0.00 85 1018.3
20260831034016 76 0.0 0.0 0.00 0.00 0.00 84 1018.3
20260831033016 77 0.0 0.0 0.00 0.00 0.00 83 1018.4
20260831032016 77 0.0 0.0 0.00 0.00 0.00 82 1018.4
20260831031016 77 0.0 0.0 0.00 0.00 0.00 82 1018.4
20260831030016 78 0.0 0.0 0.00 0.00 0.00 81 1018.4
20260831025036 78 0.0 0.0 0.00 0.00 0.00 81 1018.4
20260831024016 78 0.0 0.0 0.00 0.00 0.00 80 1018.2
20260831023016 79 0.0 0.0 0.00 0.00 0.00 79 1018.3
20260831022016 79 0.0 0.0 0.00 0.00 0.00 79 1018.2
20260831021016 79 0.0 0.0 0.00 0.00 0.00 78 1018.1
20260831020016 80 0.0 0.0 0.00 0.00 0.00 77 1018.2
20260831015016 80 0.0 0.0 0.00 0.00 0.00 77 1018.0
20260831014017 81 0.0 0.0 0.00 0.00 0.00 76 1017.9
20260831013016 81 0.0 0.0 0.00 0.00 0.00 76 1017.8
20260831012016 81 0.0 0.0 0.00 0.00 0.00 75 1017.6
20260831011016 82 0.0 0.0 0.00 0.00 0.00 76 1017.6
20260831010016 81 0.0 0.0 0.00 0.00 0.00 77 1017.4
20260831005016 82 0.0 0.0 0.00 0.00 0.00 75 1017.2
20260831004016 82 0.0 0.0 0.00 0.00 0.00 75 1017.2
20260831003016 83 0.0 0.0 0.00 0.00 0.00 72 1017.2
20260831002016 84 0.0 0.0 0.00 0.00 0.00 70 1017.1
20260831001016 85 0.0 0.0 0.00 0.00 0.00 67 1017.0
20260831000016 86 0.0 1.7 0.00 0.00 0.00 65 1017.2
20260830235036 87 0.0 1.7 0.00 0.00 0.00 63 1017.3
20260830234036 88 0.0 2.6 0.00 0.00 0.00 60 1017.3
20260830233016 89 248 0.9 2.6 0.00 0.00 0.00 59 1017.2
20260830232016 89 248 0.9 3.5 0.00 0.00 0.00 57 1017.2
20260830231016 90 248 1.7 4.3 0.00 0.00 0.00 57 1017.2
20260830230036 90 248 1.7 4.3 0.00 0.00 0.00 55 1017.2
20260830225016 90 248 1.7 5.2 0.00 0.00 0.00 53 1017.2
20260830224016 90 248 2.6 5.2 0.00 0.00 0.00 54 1017.2
20260830223016 91 248 2.6 4.3 0.00 0.00 0.00 52 1017.2
20260830222016 91 248 2.6 4.3 0.00 0.00 0.00 51 1017.1
20260830221016 91 248 2.6 7.8 0.00 0.00 0.00 51 1017.2
20260830220036 91 248 2.6 7.8 0.00 0.00 0.00 51 1017.5
20260830215016 92 248 1.7 3.5 0.00 0.00 0.00 51 1017.5
20260830214016 91 248 1.7 5.2 0.00 0.00 0.00 52 1017.7
20260830213016 91 248 1.7 3.5 0.00 0.00 0.00 51 1017.7
20260830212016 92 248 1.7 7.0 0.00 0.00 0.00 48 1017.8
20260830211036 92 248 2.6 6.1 0.00 0.00 0.00 49 1017.8
20260830210016 92 248 2.6 7.0 0.00 0.00 0.00 48 1017.7
20260830205036 93 248 3.5 7.0 0.00 0.00 0.00 49 1017.8
20260830204036 93 248 2.6 7.0 0.00 0.00 0.00 50 1018.0
20260830203016 93 248 2.6 8.7 0.00 0.00 0.00 50 1018.0
20260830202016 93 248 2.6 5.2 0.00 0.00 0.00 50 1018.1
20260830201016 92 248 3.5 7.0 0.00 0.00 0.00 47 1018.3
20260830200016 93 248 2.6 7.8 0.00 0.00 0.00 49 1018.4
20260830195036 93 248 3.5 7.0 0.00 0.00 0.00 48 1018.3
20260830194016 93 248 1.7 6.1 0.00 0.00 0.00 49 1018.6
20260830193036 92 248 3.5 7.8 0.00 0.00 0.00 49 1018.6
20260830192016 93 248 3.5 8.7 0.00 0.00 0.00 50 1018.8
20260830191016 93 248 3.5 9.6 0.00 0.00 0.00 50 1018.9
20260830190016 92 248 3.5 8.7 0.00 0.00 0.00 48 1019.1
20260830185016 90 225 2.6 7.8 0.00 0.00 0.00 51 1019.1
20260830184016 91 248 2.6 6.1 0.00 0.00 0.00 50 1019.4
20260830183036 92 248 1.7 6.1 0.00 0.00 0.00 53 1019.6
20260830182016 91 248 2.6 7.8 0.00 0.00 0.00 55 1019.7
20260830181016 92 248 3.5 7.8 0.00 0.00 0.00 52 1019.8
20260830180016 93 248 1.7 5.2 0.00 0.00 0.00 56 1019.8
20260830175016 90 248 1.7 4.3 0.00 0.00 0.00 54 1019.8
20260830174016 90 248 1.7 3.5 0.00 0.00 0.00 56 1020.1
20260830173056 91 248 2.6 7.0 0.00 0.00 0.00 58 1020.0
20260830172036 91 248 1.7 5.2 0.00 0.00 0.00 55 1020.2
20260830171016 92 248 2.6 7.0 0.00 0.00 0.00 56 1020.4
20260830170016 91 225 2.6 9.6 0.00 0.00 0.00 54 1020.3
20260830165016 90 248 2.6 7.0 0.00 0.00 0.00 56 1020.5
20260830164016 90 248 3.5 8.7 0.00 0.00 0.00 59 1020.5
20260830163016 91 248 3.5 8.7 0.00 0.00 0.00 57 1020.5
20260830162016 91 248 2.6 7.8 0.00 0.00 0.00 57 1020.6
20260830161016 90 248 3.5 7.8 0.00 0.00 0.00 57 1020.6
20260830160016 90 248 2.6 7.0 0.00 0.00 0.00 60 1020.6
20260830155016 89 180 2.6 6.1 0.00 0.00 0.00 62 1020.6
20260830154016 88 248 2.6 6.1 0.00 0.00 0.00 61 1020.6
20260830153016 88 248 2.6 7.0 0.00 0.00 0.00 63 1020.6
20260830152016 87 248 2.6 6.1 0.00 0.00 0.00 66 1020.7
20260830151036 86 248 1.7 7.0 0.00 0.00 0.00 67 1020.6
20260830150016 84 248 1.7 6.1 0.00 0.00 0.00 70 1020.6
20260830145016 83 158 1.7 3.5 0.00 0.00 0.00 70 1020.5
20260830144016 82 225 1.7 6.1 0.00 0.00 0.00 73 1020.4
20260830143016 81 248 1.7 5.2 0.00 0.00 0.00 75 1020.2
20260830142016 80 248 1.7 6.1 0.00 0.00 0.00 78 1020.1
20260830141016 78 248 1.7 3.5 0.00 0.00 0.00 80 1020.1
20260830140016 77 248 1.7 4.3 0.00 0.00 0.00 82 1020.2
20260830135016 75 225 1.7 3.5 0.00 0.00 0.00 85 1020.0
20260830134016 74 248 2.6 5.2 0.00 0.00 0.00 90 1020.0
20260830133016 72 248 1.7 6.1 0.00 0.00 0.00 93 1019.9
20260830132016 71 225 1.7 6.1 0.00 0.00 0.00 94 1019.8
20260830131016 70 248 0.9 2.6 0.00 0.00 0.00 95 1019.8
20260830130016 69 0.0 0.0 0.00 0.00 0.00 95 1019.9
20260830125016 68 0.0 0.0 0.00 0.00 0.00 94 1019.9
20260830124016 67 0.0 0.0 0.00 0.00 0.00 94 1019.8
20260830123016 67 0.0 1.7 0.00 0.00 0.00 94 1019.8
20260830122016 66 0.0 0.0 0.00 0.00 0.00 94 1019.7
20260830121016 66 0.0 0.0 0.00 0.00 0.00 94 1019.6
20260830120016 65 0.0 0.0 0.00 0.00 0.00 94 1019.7
20260830115016 65 0.0 0.0 0.00 0.00 0.00 93 1019.7
20260830114016 65 0.0 0.0 0.00 0.00 0.00 93 1019.5
20260830113016 65 0.0 0.0 0.00 0.00 0.00 93 1019.5
20260830112016 65 0.0 0.0 0.00 0.00 0.00 93 1019.3
20260830111056 65 0.0 0.0 0.00 0.00 0.00 93 1019.3
20260830110016 65 0.0 0.0 0.00 0.00 0.00 93 1019.2
20260830105016 65 0.0 0.0 0.00 0.00 0.00 93 1019.2
20260830104016 65 0.0 0.0 0.00 0.00 0.00 93 1019.2
20260830103016 65 0.0 0.0 0.00 0.00 0.00 93 1019.3
20260830102016 65 0.0 0.0 0.00 0.00 0.00 93 1019.2
20260830101016 65 0.0 0.0 0.00 0.00 0.00 93 1019.3
20260830100016 65 0.0 0.0 0.00 0.00 0.00 92 1019.2
20260830095036 65 0.0 0.0 0.00 0.00 0.00 92 1019.1
20260830094016 65 0.0 0.0 0.00 0.00 0.00 92 1019.2
20260830093016 66 0.0 0.0 0.00 0.00 0.00 92 1019.3